DW7854 Weather Reports


time (UTC)temp
F
wind
direction
speed
knots
gust
knots
rain 1hr
in
rain 24hr
in
rain mn
in
humidity
%
barometer
mb
20260904193205 99 174 4.3 8.7 0.00 0.00 0.00 46 1012.4
20260904193004 99 193 2.6 8.7 0.00 0.00 0.00 47 1012.2
20260904192306 99 157 3.5 8.7 0.00 0.00 0.00 47 1012.6
20260904191509 98 148 3.5 7.8 0.00 0.00 0.00 47 1012.4
20260904191405 99 140 3.5 7.8 0.00 0.00 0.00 47 1012.7
20260904190505 98 150 4.3 9.6 0.00 0.00 0.00 47 1012.7
20260904190110 98 225 2.6 11.3 0.00 0.00 0.00 49 1012.5
20260904185605 98 164 6.1 11.3 0.00 0.00 0.00 48 1012.8
20260904184705 98 176 3.5 11.3 0.00 0.00 0.00 50 1012.8
20260904184606 98 173 5.2 9.6 0.00 0.00 0.00 49 1012.5
20260904183805 98 169 3.5 8.7 0.00 0.00 0.00 48 1013.0
20260904183116 97 136 0.9 7.8 0.00 0.00 0.00 49 1012.8
20260904182005 97 151 4.3 8.7 0.00 0.00 0.00 50 1013.3
20260904181604 97 132 5.2 8.7 0.00 0.00 0.00 51 1013.1
20260904181105 97 142 3.5 7.8 0.00 0.00 0.00 50 1013.5
20260904180005 97 184 4.3 7.8 0.00 0.00 0.00 49 1013.3
20260904174511 96 144 1.7 10.4 0.00 0.00 0.00 52 1013.4
20260904173505 95 140 3.5 7.0 0.00 0.00 0.00 54 1013.9
20260904173107 95 87 4.3 7.8 0.00 0.00 0.00 52 1013.7
20260904172605 94 112 1.7 4.3 0.00 0.00 0.00 56 1014.0
20260904171705 95 188 3.5 7.8 0.00 0.00 0.00 53 1014.2
20260904171503 95 167 4.3 7.8 0.00 0.00 0.00 55 1013.9
20260904170805 95 188 3.5 6.1 0.00 0.00 0.00 55 1014.2
20260904170005 93 207 2.6 6.1 0.00 0.00 0.00 57 1014.0
20260904165905 94 219 1.7 6.1 0.00 0.00 0.00 58 1014.3
20260904165005 94 161 3.5 7.8 0.00 0.00 0.00 57 1014.5
20260904164506 94 163 2.6 7.8 0.00 0.00 0.00 58 1014.3
20260904163205 93 141 3.5 5.2 0.00 0.00 0.00 59 1014.5
20260904163109 93 128 2.6 5.2 0.00 0.00 0.00 59 1014.2
20260904162306 93 166 2.6 7.0 0.00 0.00 0.00 59 1014.5
20260904161505 91 103 1.7 5.2 0.00 0.00 0.00 61 1014.2
20260904161405 92 247 0.9 5.2 0.00 0.00 0.00 62 1014.4
20260904160505 91 205 1.7 4.3 0.00 0.00 0.00 63 1014.5
20260904160005 91 254 1.7 5.2 0.00 0.00 0.00 63 1014.2
20260904154705 90 124 1.7 3.5 0.00 0.00 0.00 65 1014.5
20260904154603 90 183 1.7 3.5 0.00 0.00 0.00 65 1014.3
20260904153805 91 165 2.6 5.2 0.00 0.00 0.00 65 1014.6
20260904153010 90 340 0.0 7.0 0.00 0.00 0.00 66 1014.4
20260904152005 90 156 2.6 6.1 0.00 0.00 0.00 67 1014.6
20260904151505 89 157 2.6 6.1 0.00 0.00 0.00 66 1014.4
20260904151105 89 154 1.7 5.2 0.00 0.00 0.00 67 1014.7
20260904150022 88 189 2.6 5.2 0.00 0.00 0.00 70 1014.4
20260904145306 87 170 1.7 4.3 0.00 0.00 0.00 72 1014.7
20260904144605 86 251 0.9 3.5 0.00 0.00 0.00 74 1014.4
20260904144405 86 283 1.7 4.3 0.00 0.00 0.00 74 1014.7
20260904143505 85 315 1.7 4.3 0.00 0.00 0.00 75 1014.7
20260904143006 84 351 1.7 3.5 0.00 0.00 0.00 75 1014.4
20260904141705 84 120 0.9 2.6 0.00 0.00 0.00 79 1014.6
20260904141604 83 164 0.9 2.6 0.00 0.00 0.00 79 1014.3
20260904140805 83 331 0.9 2.6 0.00 0.00 0.00 80 1014.5
20260904140109 81 282 0.0 2.6 0.00 0.00 0.00 82 1014.3
20260904135905 82 320 0.9 2.6 0.00 0.00 0.00 82 1014.5
20260904134606 80 199 0.0 2.6 0.00 0.00 0.00 85 1014.2
20260904134105 80 174 0.9 2.6 0.00 0.00 0.00 88 1014.5
20260904133205 78 158 0.9 2.6 0.00 0.00 0.00 90 1014.4
20260904133004 78 171 0.9 2.6 0.00 0.00 0.00 91 1014.1
20260904132306 77 0 0.0 0.0 0.00 0.00 0.00 93 1014.4
20260904131606 76 27 0.0 0.9 0.00 0.00 0.00 93 1014.0
20260904131405 76 27 0.0 0.9 0.00 0.00 0.00 93 1014.3
20260904130005 74 27 0.0 0.9 0.00 0.00 0.00 94 1013.9
20260904125604 74 0 0.0 0.0 0.00 0.00 0.00 94 1014.1
20260904124705 74 0 0.0 0.0 0.00 0.00 0.00 94 1014.0
20260904124506 73 27 0.0 0.0 0.00 0.00 0.00 94 1013.8
20260904123805 74 0 0.0 0.0 0.00 0.00 0.00 94 1014.0
20260904123106 73 27 0.0 0.9 0.00 0.00 0.00 93 1013.6
20260904122905 74 27 0.0 0.9 0.00 0.00 0.00 93 1013.8
20260904122005 74 0 0.0 0.0 0.00 0.00 0.00 93 1013.8
20260904121508 73 27 0.0 0.9 0.00 0.00 0.00 93 1013.5
20260904120009 73 27 0.0 0.0 0.00 0.00 0.00 93 1013.3
20260904115306 74 27 0.0 0.9 0.00 0.00 0.00 93 1013.6
20260904114504 73 27 0.0 0.9 0.00 0.00 0.00 93 1013.3
20260904114404 74 25 0.0 0.9 0.00 0.00 0.00 93 1013.6
20260904113505 74 0 0.0 0.0 0.00 0.00 0.00 92 1013.7
20260904113005 74 156 0.0 0.0 0.00 0.00 0.00 92 1013.4
20260904112605 74 0 0.0 0.0 0.00 0.00 0.00 92 1013.7
20260904111705 74 0 0.0 0.0 0.00 0.00 0.00 92 1013.6
20260904110804 74 0 0.0 0.0 0.00 0.00 0.00 92 1013.6
20260904110104 74 156 0.0 0.0 0.00 0.00 0.00 92 1013.3
20260904105905 74 0 0.0 0.0 0.00 0.00 0.00 92 1013.6
20260904105005 74 0 0.0 0.0 0.00 0.00 0.00 92 1013.6
20260904104606 74 156 0.0 0.0 0.00 0.00 0.00 92 1013.4
20260904104104 74 0 0.0 0.0 0.00 0.00 0.00 92 1013.7
20260904103205 74 0 0.0 0.0 0.00 0.00 0.00 92 1013.5
20260904103005 74 156 0.0 0.0 0.00 0.00 0.00 92 1013.2
20260904102306 74 0 0.0 0.0 0.00 0.00 0.00 92 1013.4
20260904101505 74 156 0.0 0.0 0.00 0.00 0.00 92 1013.1
20260904101404 74 0 0.0 0.0 0.00 0.00 0.00 92 1013.4
20260904100504 74 0 0.0 0.0 0.00 0.00 0.00 91 1013.4
20260904100104 74 156 0.0 0.0 0.00 0.00 0.00 91 1013.2
20260904095605 75 0 0.0 0.0 0.00 0.00 0.00 91 1013.4
20260904094704 75 0 0.0 0.0 0.00 0.00 0.00 91 1013.3
20260904094503 74 156 0.0 0.0 0.00 0.00 0.00 91 1012.9
20260904093804 75 0 0.0 0.0 0.00 0.00 0.00 91 1013.0
20260904093110 74 156 0.0 0.0 0.00 0.00 0.00 91 1012.7
20260904092905 75 0 0.0 0.0 0.00 0.00 0.00 90 1013.0
20260904092004 75 0 0.0 0.0 0.00 0.00 0.00 91 1012.8
20260904091505 74 156 0.0 0.0 0.00 0.00 0.00 90 1012.6
20260904090005 75 156 0.0 0.0 0.00 0.00 0.00 90 1012.4
20260904085306 75 0 0.0 0.0 0.00 0.00 0.00 90 1012.6
20260904084604 75 156 0.0 0.0 0.00 0.00 0.00 90 1012.4
20260904083505 75 0 0.0 0.0 0.00 0.00 0.00 90 1012.5
20260904083004 75 156 0.0 0.0 0.00 0.00 0.00 90 1012.3
20260904081705 75 0 0.0 0.0 0.00 0.00 0.00 90 1012.5
20260904081603 75 156 0.0 0.0 0.00 0.00 0.00 90 1012.3
20260904080805 75 0 0.0 0.0 0.00 0.00 0.00 89 1012.6
20260904080011 75 156 0.0 0.0 0.00 0.00 0.00 89 1012.3
20260904075905 76 0 0.0 0.0 0.00 0.00 0.00 89 1012.6
20260904075004 76 0 0.0 0.0 0.00 0.00 0.00 89 1012.5
20260904074506 75 156 0.0 0.0 0.00 0.00 0.00 89 1012.3
20260904074105 76 0 0.0 0.0 0.00 0.00 0.00 89 1012.5
20260904073204 76 0 0.0 0.0 0.00 0.00 0.00 88 1012.5
20260904073106 75 156 0.0 0.0 0.00 0.00 0.00 88 1012.2
20260904071604 76 156 0.0 0.0 0.00 0.00 0.00 88 1012.2
20260904071404 76 0 0.0 0.0 0.00 0.00 0.00 88 1012.5
20260904070504 76 0 0.0 0.0 0.00 0.00 0.00 88 1012.5
20260904070012 76 156 0.0 0.0 0.00 0.00 0.00 87 1012.3
20260904064704 76 0 0.0 0.0 0.00 0.00 0.00 87 1012.6
20260904064604 76 156 0.0 0.0 0.00 0.00 0.00 87 1012.2
20260904063804 77 0 0.0 0.0 0.00 0.00 0.00 87 1012.5
20260904063105 76 156 0.0 0.0 0.00 0.00 0.00 86 1012.3
20260904062904 77 0 0.0 0.0 0.00 0.00 0.00 86 1012.5
20260904062004 77 0 0.0 0.0 0.00 0.00 0.00 86 1012.6
20260904061603 77 156 0.0 0.0 0.00 0.00 0.00 86 1012.3
20260904061104 77 0 0.0 0.0 0.00 0.00 0.00 85 1012.6
20260904060204 77 0 0.0 0.0 0.00 0.00 0.00 85 1012.5
20260904060004 77 156 0.0 0.0 0.00 0.00 0.00 85 1012.2
20260904055306 78 0 0.0 0.0 0.00 0.00 0.00 85 1012.5
20260904054515 77 156 0.0 0.0 0.00 0.00 0.00 84 1012.2
20260904053504 78 0 0.0 0.0 0.00 0.00 0.00 84 1012.4
20260904053106 78 156 0.0 0.0 0.00 0.00 0.00 84 1012.1
20260904052604 79 0 0.0 0.0 0.00 0.00 0.00 83 1012.4
20260904051705 79 0 0.0 0.0 0.00 0.00 0.00 83 1012.3
20260904051625 78 156 0.0 0.0 0.00 0.00 0.00 83 1012.0
20260904050109 79 156 0.0 0.0 0.00 0.00 0.00 81 1011.9
20260904045904 80 0 0.0 0.0 0.00 0.00 0.00 81 1012.2
20260904045004 80 0 0.0 0.0 0.00 0.00 0.00 80 1012.2
20260904044508 80 156 0.0 0.0 0.00 0.00 0.00 80 1011.9
20260904044105 80 0 0.0 0.0 0.00 0.00 0.00 80 1012.1
20260904043204 81 0 0.0 0.0 0.00 0.00 0.00 79 1012.2
20260904043005 81 156 0.0 0.0 0.00 0.00 0.00 79 1011.9
20260904042306 81 0 0.0 0.0 0.00 0.00 0.00 78 1012.2
20260904041504 81 156 0.0 0.0 0.00 0.00 0.00 77 1011.9
20260904041404 82 0 0.0 0.0 0.00 0.00 0.00 77 1012.1
20260904040504 82 0 0.0 0.0 0.00 0.00 0.00 77 1012.1
20260904040103 82 156 0.0 0.0 0.00 0.00 0.00 76 1011.9
20260904035604 82 0 0.0 0.0 0.00 0.00 0.00 76 1012.2
20260904034705 83 0 0.0 0.0 0.00 0.00 0.00 75 1012.1
20260904034505 82 156 0.0 0.0 0.00 0.00 0.00 75 1011.8
20260904033804 83 0 0.0 0.0 0.00 0.00 0.00 75 1012.1
20260904033105 83 156 0.0 0.0 0.00 0.00 0.00 74 1011.8
20260904032904 84 0 0.0 0.0 0.00 0.00 0.00 73 1012.1
20260904032004 84 156 0.0 0.9 0.00 0.00 0.00 73 1012.1
20260904031508 84 156 0.0 0.0 0.00 0.00 0.00 72 1011.9
20260904031104 85 0 0.0 0.0 0.00 0.00 0.00 72 1012.2
20260904030204 85 156 0.0 0.9 0.00 0.00 0.00 70 1012.3
20260904030109 85 156 0.0 0.9 0.00 0.00 0.00 70 1012.0
20260904024611 85 156 0.0 1.7 0.00 0.00 0.00 70 1011.9
20260904024404 86 155 0.9 1.7 0.00 0.00 0.00 70 1012.2
20260904023504 86 155 0.9 2.6 0.00 0.00 0.00 69 1012.0
20260904023107 85 156 0.0 1.7 0.00 0.00 0.00 69 1011.6
20260904022604 86 156 0.0 0.9 0.00 0.00 0.00 69 1011.9
20260904021704 86 156 0.0 3.5 0.00 0.00 0.00 68 1011.7
20260904021605 86 156 0.0 3.5 0.00 0.00 0.00 67 1011.4
20260904020004 87 156 0.9 3.5 0.00 0.00 0.00 67 1011.2
20260904015904 87 155 1.7 3.5 0.00 0.00 0.00 67 1011.5
20260904014616 87 141 1.7 3.5 0.00 0.00 0.00 66 1011.0
20260904014104 88 159 2.6 3.5 0.00 0.00 0.00 65 1011.2
20260904013204 88 149 2.6 5.2 0.00 0.00 0.00 64 1011.1
20260904013107 88 139 1.7 5.2 0.00 0.00 0.00 64 1010.7
20260904012306 88 146 2.6 6.1 0.00 0.00 0.00 64 1010.9
20260904011603 88 147 0.9 4.3 0.00 0.00 0.00 63 1010.6
20260904011404 89 148 2.6 4.3 0.00 0.00 0.00 63 1010.9
20260904010504 89 154 1.7 4.3 0.00 0.00 0.00 62 1010.8
20260904010004 90 158 0.9 3.5 0.00 0.00 0.00 61 1010.4
20260904005604 90 132 0.9 2.6 0.00 0.00 0.00 61 1010.5
20260904004704 91 148 1.7 2.6 0.00 0.00 0.00 60 1010.6
20260904004505 90 132 0.9 2.6 0.00 0.00 0.00 60 1010.3
20260904003804 91 150 1.7 3.5 0.00 0.00 0.00 59 1010.6
20260904003105 91 150 0.9 4.3 0.00 0.00 0.00 59 1010.2
20260904002904 92 151 1.7 3.5 0.00 0.00 0.00 59 1010.5
20260904002004 92 149 2.6 4.3 0.00 0.00 0.00 58 1010.5
20260904001104 92 147 2.6 4.3 0.00 0.00 0.00 57 1010.5
20260904000204 93 146 3.5 5.2 0.00 0.00 0.00 56 1010.4
20260904000104 92 163 2.6 5.2 0.00 0.00 0.00 56 1010.2
20260903235305 93 157 3.5 6.1 0.00 0.00 0.00 56 1010.4
20260903234614 93 155 3.5 8.7 0.00 0.00 0.00 55 1010.2
20260903234404 94 142 3.5 7.0 0.00 0.00 0.00 54 1010.5
20260903233504 94 121 4.3 7.8 0.00 0.00 0.00 53 1010.5
20260903233003 94 87 4.3 8.7 0.00 0.00 0.00 53 1010.3
20260903232604 95 125 2.6 8.7 0.00 0.00 0.00 52 1010.5
20260903231704 95 145 3.5 6.1 0.00 0.00 0.00 52 1010.5
20260903231508 95 181 2.6 7.0 0.00 0.00 0.00 52 1010.2
20260903230804 96 150 4.3 9.6 0.00 0.00 0.00 51 1010.5
20260903230107 95 105 4.3 9.6 0.00 0.00 0.00 51 1010.2
20260903225904 96 139 4.3 9.6 0.00 0.00 0.00 50 1010.5
20260903225004 96 149 5.2 8.7 0.00 0.00 0.00 50 1010.5
20260903224604 96 161 5.2 8.7 0.00 0.00 0.00 50 1010.3
20260903224104 96 138 3.5 8.7 0.00 0.00 0.00 49 1010.5
20260903223204 96 128 4.3 7.8 0.00 0.00 0.00 50 1010.5
20260903223104 96 130 2.6 7.8 0.00 0.00 0.00 50 1010.3
20260903222306 96 144 4.3 7.8 0.00 0.00 0.00 50 1010.6
20260903221505 96 161 4.3 7.8 0.00 0.00 0.00 49 1010.3
20260903221404 96 140 3.5 7.8 0.00 0.00 0.00 51 1010.6
20260903220006 96 140 5.2 8.7 0.00 0.00 0.00 50 1010.5
20260903215604 96 149 4.3 8.7 0.00 0.00 0.00 51 1010.8
20260903214704 96 150 4.3 8.7 0.00 0.00 0.00 52 1010.9
20260903214513 95 111 2.6 8.7 0.00 0.00 0.00 52 1010.7
20260903213804 96 144 4.3 9.6 0.00 0.00 0.00 52 1011.0
20260903213004 96 217 3.5 7.0 0.00 0.00 0.00 50 1010.8
20260903212904 97 140 2.6 7.0 0.00 0.00 0.00 51 1011.1
20260903211506 96 130 4.3 9.6 0.00 0.00 0.00 53 1011.0
20260903211104 96 145 5.2 9.6 0.00 0.00 0.00 55 1011.4
20260903210204 96 163 6.1 9.6 0.00 0.00 0.00 54 1011.5
20260903210008 95 163 5.2 9.6 0.00 0.00 0.00 53 1011.1
20260903205306 95 146 4.3 7.8 0.00 0.00 0.00 54 1011.5
20260903204504 94 148 4.3 7.8 0.00 0.00 0.00 55 1011.3
20260903204404 95 159 5.2 9.6 0.00 0.00 0.00 55 1011.6
20260903203008 94 97 4.3 9.6 0.00 0.00 0.00 55 1011.5
20260903201704 97 168 5.2 10.4 0.00 0.00 0.00 54 1011.9
20260903201504 96 138 4.3 9.6 0.00 0.00 0.00 53 1011.6
20260903200804 96 168 4.3 10.4 0.00 0.00 0.00 56 1012.0
20260903200006 94 175 3.5 10.4 0.00 0.00 0.00 57 1011.8
20260903195904 94 156 3.5 7.0 0.00 0.00 0.00 58 1012.1
20260903195004 94 144 4.3 9.6 0.00 0.00 0.00 57 1012.2
20260903194603 94 140 3.5 9.6 0.00 0.00 0.00 58 1011.9
20260903194104 94 139 3.5 9.6 0.00 0.00 0.00 60 1012.3